DW9442 Weather Reports


Display with metric or nautical units.
time (UTC)temp
F
wind
direction
speed
MPH
gust
MPH
rain 1hr
in
rain 24hr
in
rain mn
in
humidity
%
barometer
mb
20260504081508 64 179 0.0 2.0 0.00 0.00 0.00 60 1018.4
20260504044516 49 326 0.0 1.0 0.00 0.00 0.00 83 1018.0
20260504043047 50 326 0.0 1.0 0.00 0.00 0.00 82 1017.8
20260504041517 49 326 0.0 1.0 0.00 0.00 0.00 83 1017.8
20260504040105 50 326 0.0 1.0 0.00 0.00 0.00 81 1017.6
20260504034522 50 326 0.0 1.0 0.00 0.00 0.00 80 1017.7
20260504033056 51 326 0.0 1.0 0.00 0.00 0.00 79 1017.7
20260504031534 51 326 0.0 1.0 0.00 0.00 0.00 78 1017.7
20260504030008 52 217 0.0 1.0 0.00 0.00 0.00 78 1017.8
20260504024554 52 217 0.0 1.0 0.00 0.00 0.00 77 1017.7
20260504023028 52 122 0.0 1.0 0.00 0.00 0.00 77 1017.9
20260504021511 53 103 0.0 1.0 0.00 0.00 0.00 76 1017.8
20260504020056 51 345 1.0 2.0 0.00 0.00 0.00 79 1017.9
20260504014530 52 345 0.0 2.0 0.00 0.00 0.00 78 1017.9
20260504013028 52 359 0.0 1.0 0.00 0.00 0.00 78 1017.8
20260504011505 53 359 0.0 0.0 0.00 0.00 0.00 76 1017.8
20260504010042 53 359 0.0 0.0 0.00 0.00 0.00 75 1017.8
20260504004522 54 359 0.0 1.0 0.00 0.00 0.00 74 1017.9
20260504003008 55 359 0.0 1.0 0.00 0.00 0.00 72 1017.9
20260504001607 55 359 0.0 2.0 0.00 0.00 0.00 72 1018.0
20260504000043 55 58 1.0 3.0 0.00 0.00 0.00 71 1018.1
20260503234531 55 22 1.0 4.0 0.00 0.00 0.00 71 1018.1
20260503233014 54 321 0.0 1.0 0.00 0.00 0.00 73 1018.1
20260503231503 54 321 0.0 0.0 0.00 0.00 0.00 72 1018.1
20260503230049 55 321 0.0 1.0 0.00 0.00 0.00 71 1018.0
20260503224533 56 61 0.0 3.0 0.00 0.00 0.00 70 1018.0
20260503223005 56 22 0.0 2.0 0.00 0.00 0.00 69 1018.1
20260503221549 55 91 0.0 1.0 0.00 0.00 0.00 70 1018.1
20260503220033 56 98 0.0 1.0 0.00 0.00 0.00 68 1018.0
20260503214512 57 320 1.0 2.0 0.00 0.00 0.00 67 1017.9
20260503213103 57 330 0.0 1.0 0.00 0.00 0.00 66 1017.9
20260503211543 57 330 0.0 1.0 0.00 0.00 0.00 66 1017.7
20260503210021 57 330 0.0 2.0 0.00 0.00 0.00 66 1017.6
20260503204513 58 360 0.0 1.0 0.00 0.00 0.00 64 1017.6
20260503203058 58 360 0.0 0.0 0.00 0.00 0.00 64 1017.5
20260503201549 59 360 0.0 1.0 0.00 0.00 0.00 63 1017.5
20260503200033 59 4 0.0 1.0 0.00 0.00 0.00 64 1017.5
20260503194509 60 4 0.0 0.0 0.00 0.00 0.00 62 1017.5
20260503193100 61 9 0.0 3.0 0.00 0.00 0.00 60 1017.3
20260503191523 61 276 0.0 1.0 0.00 0.00 0.00 60 1017.3
20260503190005 62 275 0.0 2.0 0.00 0.00 0.00 59 1017.1
20260503184546 63 7 0.0 2.0 0.00 0.00 0.00 57 1017.0
20260503183049 64 270 1.0 3.0 0.00 0.00 0.00 56 1017.0
20260503181514 65 239 3.0 7.0 0.00 0.00 0.00 55 1016.9
20260503174533 67 269 2.0 5.0 0.00 0.00 0.00 51 1016.6
20260503173002 67 236 2.0 5.0 0.00 0.00 0.00 50 1016.6
20260503171541 68 173 1.0 8.0 0.00 0.00 0.00 49 1016.7
20260503100110 67 135 0.0 5.0 0.00 0.00 0.00 46 1018.9